Flag for United Kingdom Weather past 2 weeks in Swanage, England, United Kingdom

Now
57 °F

Clear.


Feels Like: 56 °F
Forecast: 52 / 65 °F
Wind: 7 mph from North

Location: Bournemouth Airport

Current Time: Aug 31, 2015 at 11:29:14 PM

Latest Report: Aug 31, 2015 at 10:20 PM


Visibility: 10 mi

Pressure: 29.98 "Hg

Humidity: 88%

Dew point: 54 °F

Location of SwanageLocation

Historic Weather in Swanage — Graph

°F

Swanage temperature yesterday

Maximum temperature yesterday: 70 °F (at 12:20 PM)
Minimum temperature yesterday: 57 °F (at 4:50 AM)
Average temperature yesterday: 64 °F

Past Weeks' High & Low Weather Summary

 TemperatureHumidityPressure
High77 °F (Aug 22, 11:50 AM)100% (Aug 19, 5:50 AM)30.15 "Hg (Aug 19, 5:50 AM)
Low43 °F (Aug 28, 5:50 AM)53% (Aug 17, 2:50 PM)29.42 "Hg (Aug 24, 8:20 AM)
Average61 °F84%29.89 "Hg
* Reported Aug 16 10:20 PM — Aug 31 10:20 PM, Swanage, Weather by CustomWeather, © 2015

Note: Actual official high and low records may vary slightly from our data, if they occured in-between our weather recording intervals... More about our weather records

Advertising

Swanage weather history for previous 24 hours

 ConditionsComfort  
Time TempWeatherWind HumidityBarometerVisibility
10:20 PM
Mon, Aug 31
57 °FClear.7 mph88%29.98 "Hg10 mi
9:50 PM57 °FPassing clouds.8 mph88%29.98 "HgN/A
9:20 PM59 °FPassing clouds.7 mph82%30.01 "HgN/A
8:50 PM59 °FBroken clouds.8 mph82%30.01 "HgN/A
8:20 PM59 °FBroken clouds.10 mph82%29.98 "HgN/A
7:50 PM59 °FBroken clouds.10 mph88%29.98 "HgN/A
7:20 PM59 °FBroken clouds.13 mph82%29.98 "HgN/A
6:50 PM61 °FPartly sunny.10 mph83%29.98 "HgN/A
6:20 PM61 °FPartly sunny.10 mph83%29.98 "HgN/A
5:50 PM61 °FPartly sunny.9 mph83%29.95 "HgN/A
5:20 PM63 °FPartly sunny.9 mph83%29.95 "HgN/A
4:50 PM61 °FPartly sunny.10 mph88%29.95 "HgN/A
4:20 PM63 °FPartly sunny.10 mph83%29.95 "HgN/A
3:50 PM63 °FPartly sunny.13 mph83%29.95 "HgN/A
3:20 PM63 °FPartly sunny.13 mph83%29.92 "HgN/A
2:50 PM63 °FPartly sunny.14 mph83%29.92 "HgN/A
2:20 PM61 °FPartly sunny.12 mph88%29.92 "HgN/A
1:50 PM61 °FPartly sunny.13 mph88%29.92 "HgN/A
1:20 PM61 °FPartly sunny.13 mph94%29.92 "HgN/A
12:50 PM59 °FLight rain. Partly sunny.12 mph94%29.92 "HgN/A
12:20 PM59 °FLight rain. Broken clouds.12 mph94%29.92 "HgN/A
11:50 AM61 °FLight rain. Partly sunny.7 mph94%29.92 "Hg4 mi
11:20 AM59 °FLight rain. Partly sunny.8 mph94%29.92 "HgN/A
10:50 AM59 °FPartly sunny.7 mph100%29.92 "Hg4 mi
10:20 AM59 °FLight rain. Partly sunny.7 mph94%29.89 "HgN/A
9:50 AM59 °FLight rain. Partly sunny.10 mph94%29.89 "HgN/A
9:20 AM59 °FLight rain. Partly sunny.8 mph94%29.89 "Hg4 mi
8:50 AM59 °FLight rain. Fog.6 mph94%29.89 "Hg3 mi
8:20 AM59 °FLight rain. Broken clouds.9 mph94%29.89 "Hg5 mi
7:50 AM59 °FRain. Fog.8 mph94%29.86 "Hg3 mi
7:20 AM59 °FRain. Fog.8 mph94%29.89 "Hg3 mi
6:50 AM59 °FRain. Fog.7 mph100%29.89 "Hg2 mi
6:20 AM59 °FHeavy rain. Fog.10 mph94%29.89 "Hg1 mi
5:50 AM59 °FRain. Fog.6 mph94%29.89 "Hg2 mi
5:20 AM59 °FRain. Fog.9 mph94%29.89 "Hg3 mi
4:50 AM59 °FRain. Fog.7 mph94%29.92 "Hg3 mi
11:20 PM
Sun, Aug 30
61 °FOvercast.8 mph88%29.98 "HgN/A
Weather by CustomWeather, © 2015

See weather overviewHow to use our weather pages